Snowfall_Accumulation
0.0 0.0 0.0 0.0 0.0 0.0 0.0 0.0 0.0 nan nan nan nan nan nan nan nan nan nan nan nan nan nan nan nan nan nan
0.0 0.0 0.0 0.0 0.0 0.0 0.0 0.0 0.0 nan nan nan nan nan nan nan nan nan nan nan nan nan nan nan nan nan nan
0.2 0.0 0.0 0.0 0.0 0.0 0.0 0.0 0.0 nan nan nan nan nan nan nan nan nan nan nan nan nan nan nan nan nan nan
0.1 0.0 0.0 0.0 0.0 0.0 0.1 0.0 0.1 0.0 nan nan nan nan nan nan nan nan nan nan nan nan nan nan nan nan nan
0.4 0.1 0.0 0.0 0.0 0.0 0.2 0.2 0.0 0.0 0.0 0.0 0.1 0.0 0.0 nan nan nan nan nan nan nan nan nan nan nan nan
0.7 0.5 0.0 0.0 0.0 0.1 0.7 1.4 4.6 0.0 0.6 0.3 0.1 0.2 0.0 0.0 nan nan nan nan nan nan nan nan nan nan nan
0.4 0.1 0.1 0.0 0.1 0.6 0.5 2.0 2.6 0.4 1.3 2.3 0.2 0.4 0.0 0.0 nan nan nan nan nan nan nan nan nan nan nan
0.0 0.0 0.0 0.0 0.2 0.4 0.6 0.4 0.1 0.1 0.9 7.3 0.3 0.9 0.0 0.0 nan nan nan nan nan nan nan nan nan nan nan
nan nan nan nan nan 0.0 0.8 2.2 2.1 1.4 0.8 5.8 1.1 2.2 0.3 0.1 0.0 nan nan nan nan nan nan nan nan nan 0.0
0.0 0.0 nan nan nan 0.0 0.3 4.7 5.3 5.3 0.7 7.4 3.2 5.3 5.5 0.2 0.1 0.0 0.0 nan nan nan nan nan nan 0.0 0.0
0.1 0.0 0.0 0.1 0.1 0.0 0.0 0.6 4.3 4.4 0.5 4.6 6.4 3.8 7.0 5.0 0.6 0.2 0.1 0.1 0.0 0.0 nan nan nan 0.0 0.1
0.6 0.5 0.4 0.4 0.3 0.2 0.0 0.1 0.1 1.8 0.8 2.1 15.4 9.0 12.6 9.0 6.3 0.6 0.4 0.1 0.3 0.4 0.2 nan nan nan nan
1.2 1.1 0.9 0.7 0.2 0.5 0.1 0.1 0.1 0.2 0.2 1.1 5.3 6.1 10.0 12.8 12.3 5.1 1.6 1.0 0.3 0.6 0.8 0.5 0.4 0.2 0.7
1.7 1.0 0.8 1.5 1.4 0.7 2.1 1.3 5.4 4.4 0.3 0.7 2.8 6.3 14.0 8.3 8.1 9.2 2.1 9.9 1.0 0.7 1.0 0.9 0.5 0.4 0.5
2.0 2.1 1.5 1.5 1.9 1.4 2.2 3.1 7.5 6.2 6.5 4.6 2.6 5.0 6.6 8.6 15.9 5.9 4.4 4.0 1.5 2.1 2.6 2.3 0.9 0.6 0.5
2.7 3.0 4.2 4.3 4.6 4.3 3.5 4.7 9.6 8.2 9.1 7.2 8.1 10.5 8.2 7.6 7.6 9.3 6.9 5.6 2.9 2.5 2.8 4.5 2.6 0.7 0.4
5.4 6.5 7.3 7.3 6.5 6.5 6.3 6.2 9.3 9.3 10.6 9.2 13.1 14.7 23.1 19.8 12.8 nan 15.2 8.8 6.8 6.5 2.8 2.8 4.2 2.1 0.6
Water_Equivalent
0.00 0.00 0.00 0.00 0.00 0.00 0.00 0.00 0.00 nan nan nan nan nan nan nan nan nan nan nan nan nan nan nan nan nan nan
0.00 0.00 0.00 0.00 0.00 0.00 0.00 0.00 0.00 nan nan nan nan nan nan nan nan nan nan nan nan nan nan nan nan nan nan
0.02 0.00 0.00 0.00 0.00 0.00 0.00 0.00 0.00 nan nan nan nan nan nan nan nan nan nan nan nan nan nan nan nan nan nan
0.02 0.00 0.00 0.00 0.00 0.00 0.01 0.00 0.01 0.00 nan nan nan nan nan nan nan nan nan nan nan nan nan nan nan nan nan
0.06 0.02 0.01 0.00 0.00 0.00 0.04 0.04 0.01 0.00 0.01 0.01 0.02 0.00 0.00 nan nan nan nan nan nan nan nan nan nan nan nan
0.12 0.07 0.01 0.00 0.00 0.02 0.14 0.29 0.78 0.00 0.17 0.07 0.01 0.05 0.00 0.00 nan nan nan nan nan nan nan nan nan nan nan
0.06 0.01 0.02 0.00 0.03 0.10 0.09 0.36 0.48 0.10 0.32 0.43 0.05 0.09 0.00 0.00 nan nan nan nan nan nan nan nan nan nan nan
0.00 0.00 0.01 0.01 0.04 0.06 0.10 0.08 0.04 0.04 0.25 1.20 0.09 0.20 0.01 0.00 nan nan nan nan nan nan nan nan nan nan nan
nan nan nan nan nan 0.01 0.19 0.47 0.39 0.33 0.22 1.10 0.24 0.43 0.08 0.03 0.00 nan nan nan nan nan nan nan nan nan 0.00
0.00 0.00 nan nan nan 0.00 0.09 0.91 0.99 1.01 0.22 1.40 0.58 0.92 0.89 0.08 0.03 0.00 0.01 nan nan nan nan nan nan 0.00 0.01
0.02 0.01 0.01 0.02 0.05 0.02 0.01 0.15 0.87 0.93 0.12 0.97 1.28 0.72 1.27 0.98 0.16 0.05 0.02 0.03 0.01 0.00 nan nan nan 0.00 0.03
0.18 0.18 0.15 0.14 0.12 0.07 0.00 0.02 0.04 0.34 0.18 0.42 3.44 1.54 2.21 1.57 1.16 0.19 0.10 0.02 0.06 0.11 0.04 nan nan nan nan
0.27 0.30 0.25 0.19 0.06 0.15 0.04 0.02 0.02 0.06 0.04 0.24 1.16 1.17 1.88 2.29 2.01 1.08 0.35 0.27 0.11 0.16 0.19 0.14 0.11 0.07 0.17
0.37 0.22 0.20 0.48 0.38 0.23 0.56 0.39 1.10 0.94 0.09 0.15 0.58 1.20 2.53 1.83 1.76 1.79 0.46 1.97 0.24 0.17 0.24 0.22 0.14 0.11 0.13
0.43 0.45 0.32 0.39 0.45 0.42 0.60 0.81 1.41 1.07 1.11 1.03 0.57 1.02 1.59 2.03 2.84 1.30 0.90 0.80 0.35 0.43 0.49 0.46 0.22 0.17 0.13
0.67 0.69 0.88 0.91 0.95 0.98 0.88 1.06 1.75 1.44 1.50 1.30 1.53 1.98 2.04 2.17 1.97 1.98 1.41 1.10 0.65 0.49 0.52 0.83 0.55 0.22 0.14
1.38 1.56 1.68 1.61 1.51 1.28 1.27 1.27 1.70 1.71 1.87 1.77 2.68 2.84 3.40 3.05 2.64 nan 2.99 1.71 1.27 1.18 0.59 0.53 0.85 0.52 0.20
SL_Ratio
nan nan nan nan nan nan nan nan nan nan nan nan nan nan nan nan nan nan nan nan nan nan nan nan nan nan nan
nan nan nan nan nan nan nan nan nan nan nan nan nan nan nan nan nan nan nan nan nan nan nan nan nan nan nan
6.2 nan nan nan nan nan nan nan nan nan nan nan nan nan nan nan nan nan nan nan nan nan nan nan nan nan nan
5.8 5.0 nan nan nan 5.0 4.7 nan 4.1 nan nan nan nan nan nan nan nan nan nan nan nan nan nan nan nan nan nan
5.9 5.8 5.0 5.0 nan 5.0 4.9 4.4 3.8 nan 3.8 4.0 4.0 nan nan nan nan nan nan nan nan nan nan nan nan nan nan
5.8 6.4 5.5 nan 0.0 5.7 4.7 4.8 5.9 5.0 3.8 4.3 4.0 4.5 nan nan nan nan nan nan nan nan nan nan nan nan nan
6.0 5.6 6.2 nan 5.1 5.8 5.6 5.6 5.5 3.4 3.9 5.4 3.7 4.6 nan nan nan nan nan nan nan nan nan nan nan nan nan
5.0 6.0 4.3 4.6 5.2 5.8 6.0 5.0 3.3 3.7 3.8 6.1 3.5 4.3 3.0 nan nan nan nan nan nan nan nan nan nan nan nan
nan nan nan nan nan 4.5 4.2 4.8 5.3 4.4 3.7 5.2 4.6 5.1 3.5 3.0 nan nan nan nan nan nan nan nan nan nan nan
5.0 nan nan nan nan nan 3.7 5.2 5.3 5.2 3.3 5.3 5.6 5.7 6.1 2.7 3.2 5.0 4.7 nan nan nan nan nan nan nan 5.0
3.3 3.5 2.5 2.5 2.5 2.6 2.6 3.7 4.9 4.8 3.9 4.7 5.0 5.3 5.5 5.2 3.9 3.9 4.9 4.9 4.7 4.3 nan nan nan nan 4.7
3.1 2.7 2.9 2.7 2.8 2.5 4.0 2.8 3.1 5.1 4.2 5.1 4.5 5.9 5.7 5.7 5.5 3.5 3.6 3.7 4.5 4.1 4.2 nan nan nan nan
4.5 3.9 3.6 3.5 3.3 3.2 3.4 3.2 3.1 4.1 4.3 4.6 4.6 5.2 5.3 5.6 6.1 4.7 4.5 3.9 2.9 3.9 4.3 3.8 3.6 3.1 4.2
4.7 4.7 4.0 3.2 3.7 3.1 3.7 3.4 4.9 4.6 3.7 4.3 4.8 5.3 5.6 4.5 4.6 5.1 4.5 5.0 4.0 3.8 4.1 4.1 3.6 3.5 3.7
4.6 4.7 4.6 3.8 4.2 3.5 3.7 3.8 5.4 5.8 5.9 4.4 4.6 4.8 4.2 4.3 5.6 4.5 4.9 5.0 4.4 4.8 5.2 5.1 4.1 3.6 3.4
4.1 4.4 4.8 4.7 4.9 4.4 4.0 4.5 5.5 5.7 6.0 5.5 5.3 5.3 4.0 3.5 3.9 4.7 4.9 5.1 4.6 5.2 5.4 5.5 4.6 3.3 3.0
3.9 4.2 4.3 4.5 4.3 5.1 5.0 4.9 5.5 5.4 5.7 5.2 4.9 5.2 6.8 6.5 4.9 nan 5.1 5.2 5.4 5.5 4.7 5.2 5.0 4.1 3.3